{"data":{"norad_id":68615,"intl_designator":"2026-073P","name":"STARLINK-37176","alt_names":[],"object_type":"PAYLOAD","status":"ACTIVE","operator":null,"country":"US","launch_date":"2026-04-07","launch_site_code":"AFWTR","launch_vehicle":null,"mission":null,"orbit_class":"UNKNOWN","rcs_meters":null,"size_class":null,"mass_kg":null,"dimensions":null,"purposes":["comms"],"wikipedia_slug":null,"has_3d_model":false,"image_url":null,"decayed_at":null,"tle_current":{"epoch":"2026-09-19T18:42:53.163072Z","epoch_age_seconds":106224,"freshness":"FRESH","line1":"1 68615U 26073P   26262.77978198  .00011985  00000+0  37272-3 0  9995","line2":"2 68615  97.2868 100.8613 0002551 112.2396 247.9118 15.33463682 25633","mean_motion":15.33463682,"eccentricity":0.0002551,"inclination_deg":97.2868,"raan_deg":100.8613,"arg_perigee_deg":112.2396,"mean_anomaly_deg":247.9118,"bstar":0.00037272,"rev_number":2563,"period_min":93.905060609058,"perigee_km":463.7417819213,"apogee_km":467.2333991874,"semimajor_km":6843.6245905544,"source":"CELESTRAK","updated_at":"2026-09-20T09:00:43.945360Z"}}}